DW1762 Weather Reports


time (UTC)temp
C
wind
direction
speed
KPH
gust
KPH
rain 1hr
cm
rain 24hr
cm
rain mn
cm
humidity
%
barometer
mb
20260505152803 17 110 1.6 3.2 0.00 0.20 0.20 88 1007.9
20260505152004 17 115 1.6 4.8 0.00 0.20 0.20 89 1008.1
20260505151603 17 115 1.6 4.8 0.00 0.20 0.20 89 1008.3
20260505140403 16 100 0.0 1.6 0.00 0.20 0.20 92 1008.3
20260505124403 15 0 0.0 0.0 0.00 0.20 0.20 96 1008.0
20260505123603 15 0 0.0 0.0 0.00 0.20 0.20 96 1007.9
20260505123204 15 58 0.0 1.6 0.00 0.20 0.20 96 1008.1
20260505122804 15 57 0.0 1.6 0.00 0.20 0.20 96 1008.0
20260505122403 15 57 0.0 1.6 0.00 0.20 0.20 96 1008.0
20260505122005 15 0 0.0 0.0 0.00 0.20 0.20 96 1007.9
20260505121603 15 58 0.0 3.2 0.00 0.20 0.20 96 1007.8
20260505120803 14 98 0.0 3.2 0.00 0.20 0.20 96 1007.6
20260505120403 14 203 0.0 1.6 0.00 0.20 0.20 96 1007.8
20260505120005 14 203 0.0 1.6 0.00 0.20 0.20 96 1007.9
20260505115204 14 0 0.0 0.0 0.00 0.20 0.20 95 1007.3
20260505114804 14 0 0.0 0.0 0.00 0.20 0.20 95 1007.0
20260505114403 14 206 0.0 1.6 0.00 0.20 0.20 95 1007.3
20260505114003 14 205 0.0 1.6 0.00 0.20 0.20 95 1007.1
20260505113604 14 193 0.0 3.2 0.00 0.20 0.20 95 1007.1
20260505113203 15 184 0.0 3.2 0.00 0.20 0.20 95 1007.0
20260505112404 15 167 1.6 3.2 0.00 0.20 0.20 95 1007.1
20260505112004 15 151 1.6 4.8 0.00 0.20 0.20 95 1007.0
20260505111603 15 139 3.2 9.7 0.00 0.20 0.20 95 1006.7
20260505111204 15 136 4.8 9.7 0.03 0.20 0.20 95 1006.4
20260505110403 15 125 6.4 12.9 0.05 0.20 0.20 94 1006.2
20260505101202 15 195 0.0 4.8 0.18 0.18 0.18 91 1007.8
20260505100802 15 195 0.0 4.8 0.18 0.18 0.18 91 1007.9
20260505100402 15 200 0.0 1.6 0.15 0.15 0.15 90 1007.8
20260505100002 15 0 0.0 0.0 0.10 0.10 0.10 89 1007.8
20260505095202 15 192 0.0 1.6 0.05 0.05 0.05 88 1007.9
20260505094802 15 198 0.0 1.6 0.03 0.03 0.03 86 1007.8
20260505094403 16 217 0.0 4.8 0.03 0.03 0.03 86 1007.7
20260505094002 15 217 0.0 4.8 0.00 0.00 0.00 86 1007.7
20260505093603 15 215 0.0 4.8 0.00 0.00 0.00 86 1007.8
20260505093202 15 240 0.0 1.6 0.00 0.00 0.00 86 1007.7
20260505092802 15 328 0.0 1.6 0.00 0.00 0.00 86 1007.6
20260505092402 15 0 0.0 0.0 0.00 0.00 0.00 86 1007.6
20260505092002 15 0 0.0 0.0 0.00 0.00 0.00 86 1007.5
20260505091602 15 0 0.0 0.0 0.00 0.00 0.00 85 1007.4
20260505091202 15 0 0.0 0.0 0.00 0.00 0.00 85 1007.1
20260505090402 15 52 0.0 1.6 0.00 0.00 0.00 83 1006.8
20260505090002 15 52 0.0 1.6 0.00 0.00 0.00 83 1006.7
20260505085603 16 103 0.0 1.6 0.00 0.00 0.00 82 1006.9
20260505085203 16 104 0.0 1.6 0.00 0.00 0.00 81 1007.0
20260505084803 16 103 0.0 1.6 0.00 0.00 0.00 81 1007.2
20260505084402 16 0 0.0 0.0 0.00 0.00 0.00 79 1007.1
20260505084002 16 0 0.0 0.0 0.00 0.00 0.00 79 1007.1
20260505083602 16 0 0.0 0.0 0.00 0.00 0.00 78 1007.0
20260505083202 16 104 0.0 3.2 0.00 0.00 0.00 78 1006.8
20260505082803 16 102 1.6 3.2 0.00 0.00 0.00 78 1006.7
20260505082402 16 100 1.6 3.2 0.00 0.00 0.00 79 1006.6
20260505082003 16 97 1.6 3.2 0.00 0.00 0.00 79 1006.6
20260505081602 16 101 1.6 3.2 0.00 0.00 0.00 79 1006.5
20260505081203 16 107 1.6 3.2 0.00 0.00 0.00 79 1006.4
20260505080402 16 113 0.0 1.6 0.00 0.00 0.00 79 1006.6
20260505080002 16 0 0.0 0.0 0.00 0.00 0.00 79 1006.5
20260505075602 16 0 0.0 0.0 0.00 0.00 0.00 80 1006.6
20260505075203 16 0 0.0 0.0 0.00 0.00 0.00 81 1006.7
20260505074802 16 0 0.0 0.0 0.00 0.00 0.00 80 1006.8
20260505074402 16 114 0.0 1.6 0.00 0.00 0.00 80 1006.8
20260505074003 16 114 0.0 1.6 0.00 0.00 0.00 79 1006.8
20260505073604 16 114 0.0 1.6 0.00 0.00 0.00 79 1006.8
20260505073202 16 116 0.0 3.2 0.00 0.00 0.00 79 1006.8
20260505072802 16 116 1.6 3.2 0.00 0.00 0.00 78 1006.7
20260505072002 16 117 1.6 3.2 0.00 0.00 0.00 78 1006.7
20260505071603 16 119 0.0 3.2 0.00 0.00 0.00 78 1006.8
20260505071202 16 0 0.0 0.0 0.00 0.00 0.00 78 1007.1
20260505070802 16 132 0.0 1.6 0.00 0.00 0.00 78 1007.1
20260505070402 16 132 0.0 1.6 0.00 0.00 0.00 78 1007.1
20260505065602 16 137 0.0 1.6 0.00 0.00 0.00 78 1007.3
20260505065202 16 153 0.0 4.8 0.00 0.00 0.00 78 1007.2
20260505064803 16 189 0.0 4.8 0.00 0.00 0.00 77 1007.2
20260505064003 16 174 1.6 4.8 0.00 0.00 0.00 78 1007.3
20260505063603 16 169 1.6 4.8 0.00 0.00 0.00 78 1007.4
20260505063202 16 142 1.6 3.2 0.00 0.00 0.00 78 1007.3
20260505062802 16 141 1.6 3.2 0.00 0.00 0.00 78 1007.2
20260505062402 16 138 1.6 3.2 0.00 0.00 0.00 78 1007.3
20260505062003 16 139 1.6 3.2 0.00 0.00 0.00 78 1007.3
20260505061603 16 138 1.6 3.2 0.00 0.00 0.00 78 1007.3
20260505061203 16 135 1.6 3.2 0.00 0.00 0.00 78 1007.4
20260505060802 16 132 1.6 3.2 0.00 0.00 0.00 78 1007.5
20260505060402 16 131 1.6 3.2 0.00 0.00 0.00 78 1007.3
20260505060004 16 135 1.6 3.2 0.00 0.00 0.00 77 1007.5
20260505055603 16 126 1.6 4.8 0.00 0.00 0.00 77 1007.7
20260505055202 16 125 1.6 4.8 0.00 0.00 0.00 77 1007.8
20260505054802 17 123 0.0 4.8 0.00 0.00 0.00 77 1007.9
20260505054402 17 138 0.0 3.2 0.00 0.00 0.00 77 1008.1
20260505054002 17 136 0.0 3.2 0.00 0.00 0.00 77 1007.9
20260505053603 17 136 1.6 3.2 0.00 0.00 0.00 76 1008.0
20260505053203 17 135 1.6 3.2 0.00 0.00 0.00 76 1008.0
20260505052803 17 135 1.6 3.2 0.00 0.00 0.00 76 1008.0
20260505052003 17 134 1.6 3.2 0.00 0.00 0.00 76 1008.0
20260505051602 17 135 1.6 3.2 0.00 0.00 0.00 75 1008.0
20260505051202 17 136 1.6 3.2 0.00 0.00 0.00 75 1008.0
20260505050802 17 138 1.6 3.2 0.00 0.00 0.00 75 1008.0
20260505050402 17 138 1.6 3.2 0.00 0.00 0.00 74 1008.1
20260505041202 18 163 0.0 4.8 0.00 0.00 0.00 72 1008.6
20260505040803 18 172 0.0 4.8 0.00 0.00 0.00 71 1008.7
20260505040402 18 164 0.0 4.8 0.00 0.00 0.00 71 1008.7
20260505040003 18 161 1.6 6.4 0.00 0.00 0.00 71 1008.8
20260505035603 18 173 1.6 11.3 0.00 0.00 0.00 70 1008.9
20260505035202 18 177 1.6 11.3 0.00 0.00 0.00 70 1008.9
20260505034803 18 182 1.6 9.7 0.00 0.00 0.00 71 1008.9
20260505034402 18 186 1.6 6.4 0.00 0.00 0.00 70 1008.9
20260505034003 18 189 1.6 6.4 0.00 0.00 0.00 70 1008.9
20260505033603 18 202 1.6 4.8 0.00 0.00 0.00 70 1009.0
20260505033203 18 194 1.6 4.8 0.00 0.00 0.00 70 1009.0
20260505032802 18 194 1.6 4.8 0.00 0.00 0.00 69 1008.9
20260505032403 18 189 1.6 4.8 0.00 0.00 0.00 69 1009.0
20260505032003 18 191 1.6 6.4 0.00 0.00 0.00 68 1008.9
20260505031603 18 190 1.6 9.7 0.00 0.00 0.00 68 1008.9
20260505031202 18 184 1.6 9.7 0.00 0.00 0.00 68 1008.9
20260505030403 19 190 3.2 11.3 0.00 0.00 0.00 67 1008.8
20260505030003 19 184 4.8 11.3 0.00 0.00 0.00 67 1008.8
20260505025602 19 187 4.8 11.3 0.00 0.00 0.00 67 1008.7
20260505024803 19 184 3.2 11.3 0.00 0.00 0.00 66 1008.5
20260505024402 19 172 1.6 11.3 0.00 0.00 0.00 65 1008.5
20260505024003 20 177 3.2 12.9 0.00 0.00 0.00 65 1008.4
20260505023603 20 169 3.2 12.9 0.00 0.00 0.00 65 1008.3
20260505023202 20 183 3.2 14.5 0.00 0.00 0.00 65 1008.1
20260505022403 20 183 3.2 12.9 0.00 0.00 0.00 65 1008.1
20260505022003 20 184 3.2 12.9 0.00 0.00 0.00 65 1008.0
20260505021603 20 183 3.2 12.9 0.00 0.00 0.00 64 1008.0
20260505021202 20 172 1.6 11.3 0.00 0.00 0.00 65 1008.0
20260505020803 20 170 1.6 11.3 0.00 0.00 0.00 65 1007.9
20260505013215 20 175 3.2 11.3 0.00 0.00 0.00 61 1007.5
20260505012803 21 170 1.6 11.3 0.00 0.00 0.00 61 1007.5
20260505012404 21 172 1.6 11.3 0.00 0.00 0.00 61 1007.3
20260505011602 21 131 1.6 6.4 0.00 0.00 0.00 60 1007.2
20260505011205 21 131 1.6 6.4 0.00 0.00 0.00 59 1007.1
20260505010402 21 165 1.6 11.3 0.00 0.00 0.00 58 1006.9
20260505010004 22 183 1.6 11.3 0.00 0.00 0.00 57 1007.0
20260505005603 22 184 3.2 11.3 0.00 0.00 0.00 56 1007.0
20260505005203 22 175 3.2 14.5 0.00 0.00 0.00 57 1007.0
20260505004803 22 176 4.8 16.1 0.00 0.00 0.00 56 1006.9
20260505004003 22 191 6.4 17.7 0.00 0.00 0.00 55 1006.9
20260505003603 23 187 6.4 16.1 0.00 0.00 0.00 54 1007.0
20260505003203 23 183 6.4 16.1 0.00 0.00 0.00 53 1007.0
20260505002802 23 185 6.4 16.1 0.00 0.00 0.00 52 1007.0
20260505002403 23 191 6.4 19.3 0.00 0.00 0.00 53 1007.0
20260505002003 23 191 4.8 19.3 0.00 0.00 0.00 52 1007.0
20260505001202 24 185 4.8 19.3 0.00 0.00 0.00 52 1007.0
20260505000803 24 187 6.4 19.3 0.00 0.00 0.00 50 1006.9
20260505000405 24 191 9.7 24.1 0.00 0.00 0.00 50 1006.9
20260505000004 24 193 9.7 24.1 0.00 0.00 0.00 50 1006.8
20260504235603 25 191 9.7 22.5 0.00 0.00 0.00 49 1006.8
20260504235202 25 191 6.4 22.5 0.00 0.00 0.00 50 1006.8
20260504234803 25 185 9.7 22.5 0.00 0.00 0.00 49 1006.8
20260504234403 25 177 6.4 22.5 0.00 0.00 0.00 48 1006.7
20260504234003 25 167 4.8 17.7 0.00 0.00 0.00 48 1006.6
20260504233203 26 170 4.8 16.1 0.00 0.00 0.00 48 1006.7
20260504232804 26 176 6.4 17.7 0.00 0.00 0.00 47 1006.8
20260504232403 26 176 6.4 19.3 0.00 0.00 0.00 48 1006.7
20260504232003 26 179 6.4 19.3 0.00 0.00 0.00 47 1006.9
20260504231602 26 179 6.4 19.3 0.00 0.00 0.00 48 1006.9
20260504231202 26 192 6.4 22.5 0.00 0.00 0.00 48 1006.9
20260504230803 26 196 6.4 22.5 0.00 0.00 0.00 47 1006.9
20260504230403 26 200 6.4 19.3 0.00 0.00 0.00 46 1007.1
20260504230003 26 205 6.4 17.7 0.00 0.00 0.00 47 1007.0
20260504225603 26 205 6.4 19.3 0.00 0.00 0.00 46 1007.1
20260504225203 26 205 6.4 19.3 0.00 0.00 0.00 46 1007.0
20260504224803 26 199 6.4 19.3 0.00 0.00 0.00 44 1006.9
20260504224404 26 198 6.4 16.1 0.00 0.00 0.00 44 1006.8
20260504224003 26 203 6.4 19.3 0.00 0.00 0.00 45 1007.0
20260504223203 26 205 6.4 22.5 0.00 0.00 0.00 43 1007.0
20260504222803 26 203 9.7 22.5 0.00 0.00 0.00 45 1007.1
20260504222403 26 205 11.3 29.0 0.00 0.00 0.00 44 1007.1
20260504222003 26 200 11.3 29.0 0.00 0.00 0.00 44 1007.1
20260504221603 26 208 11.3 25.7 0.00 0.00 0.00 44 1007.1
20260504220803 26 212 11.3 20.9 0.00 0.00 0.00 42 1007.0
20260504220403 26 205 11.3 22.5 0.00 0.00 0.00 44 1007.1
20260504220004 26 206 11.3 22.5 0.00 0.00 0.00 43 1007.1
20260504215202 26 207 9.7 19.3 0.00 0.00 0.00 44 1007.3
20260504214402 26 207 9.7 19.3 0.00 0.00 0.00 45 1007.3
20260504214003 26 204 11.3 24.1 0.00 0.00 0.00 46 1007.3
20260504213203 26 195 9.7 24.1 0.00 0.00 0.00 43 1007.5
20260504212803 26 183 11.3 24.1 0.00 0.00 0.00 45 1007.4
20260504212403 26 185 11.3 25.7 0.00 0.00 0.00 45 1007.4
20260504212004 26 192 9.7 25.7 0.00 0.00 0.00 45 1007.5
20260504211602 26 196 11.3 20.9 0.00 0.00 0.00 45 1007.5
20260504211202 26 199 12.9 22.5 0.00 0.00 0.00 47 1007.6
20260504210803 26 203 11.3 22.5 0.00 0.00 0.00 45 1007.6
20260504210402 26 206 11.3 22.5 0.00 0.00 0.00 46 1007.6
20260504205602 26 201 12.9 25.7 0.00 0.00 0.00 47 1007.7
20260504205203 26 197 12.9 25.7 0.00 0.00 0.00 48 1007.7
20260504204802 26 194 11.3 22.5 0.00 0.00 0.00 46 1007.7
20260504204402 26 190 9.7 22.5 0.00 0.00 0.00 47 1007.8
20260504204002 26 191 11.3 22.5 0.00 0.00 0.00 47 1007.9
20260504203202 26 207 9.7 22.5 0.00 0.00 0.00 48 1007.9
20260504202802 26 198 11.3 20.9 0.00 0.00 0.00 47 1008.1
20260504202402 26 195 12.9 30.6 0.00 0.00 0.00 47 1008.1
20260504202003 26 192 12.9 30.6 0.00 0.00 0.00 45 1008.2
20260504201602 26 192 11.3 30.6 0.00 0.00 0.00 44 1008.3
20260504200802 26 213 12.9 25.7 0.00 0.00 0.00 49 1008.3
20260504200403 26 207 14.5 33.8 0.00 0.00 0.00 45 1008.3
20260504200003 26 200 14.5 33.8 0.00 0.00 0.00 43 1008.3
20260504195603 26 197 11.3 29.0 0.00 0.00 0.00 45 1008.4
20260504195202 26 192 9.7 25.7 0.00 0.00 0.00 45 1008.4
20260504194803 26 192 6.4 22.5 0.00 0.00 0.00 44 1008.5
20260504194403 26 205 9.7 20.9 0.00 0.00 0.00 47 1008.4
20260504194003 26 216 12.9 30.6 0.00 0.00 0.00 47 1008.5
20260504193603 26 209 16.1 30.6 0.00 0.00 0.00 46 1008.5
20260504193202 26 214 14.5 30.6 0.00 0.00 0.00 43 1008.6
20260504192802 26 204 11.3 29.0 0.00 0.00 0.00 43 1008.5
20260504192003 26 176 9.7 24.1 0.00 0.00 0.00 44 1008.4
20260504191602 26 186 11.3 25.7 0.00 0.00 0.00 44 1008.6
20260504191203 26 192 12.9 29.0 0.00 0.00 0.00 45 1008.6
20260504190803 26 196 12.9 32.2 0.00 0.00 0.00 46 1008.6
20260504190402 26 201 12.9 32.2 0.00 0.00 0.00 45 1008.7
20260504190003 26 201 14.5 29.0 0.00 0.00 0.00 46 1008.7
20260504185602 26 200 14.5 29.0 0.00 0.00 0.00 45 1008.7
20260504184803 26 204 11.3 29.0 0.00 0.00 0.00 46 1008.8
20260504184403 26 205 11.3 29.0 0.00 0.00 0.00 49 1008.9
20260504183603 26 197 12.9 30.6 0.00 0.00 0.00 47 1008.8
20260504182802 26 195 11.3 20.9 0.00 0.00 0.00 46 1008.9
20260504181602 26 193 9.7 30.6 0.00 0.00 0.00 47 1009.0
20260504180803 25 204 16.1 32.2 0.00 0.00 0.00 48 1009.1
20260504180403 25 202 14.5 32.2 0.00 0.00 0.00 45 1009.0
20260504180003 25 189 11.3 29.0 0.00 0.00 0.00 47 1009.0
20260504175603 25 188 9.7 22.5 0.00 0.00 0.00 45 1009.1
20260504175202 25 202 11.3 30.6 0.00 0.00 0.00 50 1009.1
20260504174803 25 213 14.5 30.6 0.00 0.00 0.00 47 1009.1
20260504174003 25 206 12.9 30.6 0.00 0.00 0.00 47 1009.2
20260504173203 25 196 16.1 30.6 0.00 0.00 0.00 47 1009.4
20260504172803 25 200 14.5 30.6 0.00 0.00 0.00 49 1009.3
20260504172403 25 197 11.3 30.6 0.00 0.00 0.00 48 1009.4
20260504172003 25 192 9.7 20.9 0.00 0.00 0.00 47 1009.5
20260504171603 25 201 11.3 19.3 0.00 0.00 0.00 50 1009.4
20260504170802 24 212 12.9 24.1 0.00 0.00 0.00 50 1009.7
20260504170403 24 203 11.3 24.1 0.00 0.00 0.00 46 1009.7
20260504160403 23 211 12.9 29.0 0.00 0.00 0.00 50 1010.2